Flag for United Kingdom Weather past 2 weeks in Liverpool, England, United Kingdom

Now
57 °F

Passing clouds.


Feels Like: 54 °F
Forecast: 53 / 61 °F
Wind: 16 mph from West

Location: Liverpool Airport

Current Time: Aug 22, 2014 at 6:40:17 PM

Latest Report: Aug 22, 2014 at 6:20 PM


Visibility: N/A

Pressure: 29.89 "Hg

Humidity: 67%

Dew point: 46 °F

Location of LiverpoolLocation

Historic Weather in Liverpool — Graph

°F

Liverpool temperature yesterday

Maximum temperature yesterday: 61 °F (at 11:20 AM)
Minimum temperature yesterday: 50 °F (at 1:50 AM)
Average temperature yesterday: 57 °F

Past Weeks' High & Low Weather Summary

 TemperatureHumidityPressure
High73 °F (Aug 8, 3:20 PM)100% (Aug 10, 8:20 AM)30.15 "Hg (Aug 10, 8:20 AM)
Low50 °F (Aug 19, 2:50 AM)46% (Aug 9, 4:50 PM)29.27 "Hg (Aug 10, 1:50 PM)
Average59 °F76%29.78 "Hg
* Reported Aug 7 4:20 PM — Aug 22 4:50 PM, Liverpool, Weather by CustomWeather, © 2014

Note: Actual official high and low records may vary slightly from our data, if they occured in-between our weather recording intervals... More about our weather records

Advertising

Liverpool weather history for previous 24 hours

 ConditionsComfort  
Time TempWeatherWind HumidityBarometerVisibility
4:50 PM
Aug 22
59 °FPassing clouds.16 mph63%29.89 "HgN/A
4:20 PM59 °FPassing clouds.16 mph68%29.89 "HgN/A
3:50 PM57 °FPassing clouds.13 mph67%29.89 "HgN/A
3:20 PM57 °FPassing clouds.15 mph72%29.89 "HgN/A
2:50 PM59 °FPassing clouds.18 mph63%29.89 "HgN/A
2:20 PM59 °FPassing clouds.13 mph59%29.89 "HgN/A
1:50 PM59 °FPassing clouds.13 mph55%29.86 "HgN/A
1:20 PM61 °FPassing clouds.16 mph59%29.86 "HgN/A
12:50 PM61 °FPassing clouds.10 mph52%29.86 "HgN/A
12:20 PM61 °FSprinkles. Passing clouds.14 mph68%29.86 "HgN/A
11:50 AM59 °FScattered showers. Passing clouds.10 mph68%29.86 "HgN/A
11:20 AM59 °FScattered showers. Passing clouds.10 mph68%29.83 "HgN/A
10:50 AM59 °FScattered showers. Passing clouds.9 mph72%29.83 "HgN/A
10:20 AM59 °FScattered showers. Scattered clouds.8 mph72%29.83 "HgN/A
9:50 AM57 °FScattered showers. Passing clouds.6 mph82%29.83 "HgN/A
9:20 AM57 °FScattered showers. Passing clouds.7 mph82%29.80 "HgN/A
8:50 AM55 °FScattered showers. Passing clouds.6 mph88%29.80 "HgN/A
8:20 AM54 °FScattered showers. Scattered clouds.6 mph94%29.80 "HgN/A
7:50 AM54 °FScattered showers. Passing clouds.6 mph88%29.77 "HgN/A
7:20 AM54 °FSprinkles. Scattered clouds.7 mph88%29.77 "HgN/A
6:50 AM54 °FSprinkles. Passing clouds.3 mph88%29.77 "HgN/A
6:20 AM54 °FSprinkles. Passing clouds.7 mph94%29.77 "HgN/A
5:50 AM52 °FSprinkles. Passing clouds.10 mph94%29.77 "HgN/A
5:20 AM52 °FPassing clouds.8 mph94%29.77 "HgN/A
4:50 AM52 °FPassing clouds.8 mph94%29.77 "HgN/A
4:20 AM52 °FPassing clouds.7 mph88%29.77 "HgN/A
3:20 AM54 °FPassing clouds.6 mph88%29.77 "HgN/A
2:50 AM54 °FPassing clouds.5 mph88%29.77 "HgN/A
2:20 AM54 °FPartly cloudy.2 mph94%29.77 "HgN/A
1:50 AM54 °FLight rain. Passing clouds.6 mph94%29.77 "HgN/A
1:20 AM54 °FLight rain. Partly cloudy.9 mph94%29.77 "HgN/A
12:50 AM54 °FLight rain. Partly cloudy.8 mph94%29.77 "HgN/A
12:20 AM55 °FPassing clouds.13 mph82%29.77 "HgN/A
11:50 PM
Aug 21
55 °FPassing clouds.9 mph88%29.77 "HgN/A
11:20 PM55 °FPassing clouds.9 mph88%29.77 "HgN/A
10:50 PM55 °FPassing clouds.8 mph88%29.77 "HgN/A
10:20 PM57 °FPassing clouds.8 mph82%29.77 "HgN/A
9:50 PM55 °FScattered showers. Passing clouds.10 mph88%29.77 "HgN/A
9:20 PM57 °FPassing clouds.12 mph82%29.77 "HgN/A
8:50 PM57 °FSprinkles. Passing clouds.12 mph82%29.77 "HgN/A
8:20 PM59 °FPassing clouds.13 mph72%29.77 "HgN/A
7:50 PM59 °FPartly sunny.15 mph72%29.77 "HgN/A
7:20 PM59 °FScattered clouds.15 mph72%29.77 "HgN/A
6:50 PM59 °FScattered clouds.14 mph72%29.77 "HgN/A
6:20 PM61 °FScattered clouds.17 mph68%29.80 "HgN/A
Weather by CustomWeather, © 2014

See weather overviewHow to use our weather pages